EHI
0 0 0 0 0 0 0 0 0 0 0 0 0 0 0 0 0 0 0 0 0 0 0 0 0 0 0 0 0 0 0 0 0 0 0 0 0 0
0 0 0 0 0 0 0 0 0 0 0 0 0 0 0 0 0 0 0 0 0 0 0 0 0 0 0 0 0 0 0 0 0 0 0 0 0 0
0 0 0 0 0 0 0 0 0 0 0 0 0 0 0 0 0 0 0 0 0 0 0 0 0 0 0 0 0 0 0 0 0 0 0 0 0 0
0 0 0 0 0 0 0 0 0 0 0 0 0 0 0 0 0 0 0 0 0 0 0 0 0 0 0 0 0 0 0 0 0 0 0 0 0 0
0 0 0 0 0 0 0 0 0 0 0 0 0 0 0 0 0 0 0 0 0 0 0 0 0 0 0 0 0 0 0 0 0 0 0 0 0 0
0 0 0 0 0 0 0 0 0 0 0 0 0 0 0 0 0 0 0 0 0 0 0 0 0 0 0 0 0 0 0 0 0 0 0 0 0 0
0 0 0 0 0 0 0 0 0 0 0 0 0 0 0 0 0 0 0 0 0 0 0 0 0 0 0 0 0 0 0 0 0 0 0 0 0 0
0 0 0 0 0 0 0 0 0 0 0 0 0 0 0 0 0 0 0 0 0 0 0 0 0 0 0 0 0 0 0 0 0 0 0 0 0 0
0 0 0 0 0 0 0 0 0 0 0 0 0 0 0 0 0 0 0 0 0 0 0 0 0 0 0 0 0 0 0 0 0 0 0 0 0 0
0 0 0 0 0 0 0 0 0 0 0 0 0 0 0 0 0 0 0 0 0 0 0 0 0 0 0 0 0 0 0 0 0 0 0 0 0 0
0 0 0 0 0 0 0 0 0 0 0 0 0 0 0 0 0 0 0 0 0 0 0 0 0 0 0 0 0 0 0 0 0 0 0 0 0 0
0 0 0 0 0 0 0 0 0 0 0 0 0 0 0 0 0 0 0 0 0 0 0 0 0 0 0 0 0 0 0 0 0 0 0 0 0 0
0 0 0 0 0 0 0 0 0 0 0 0 0 0 0 0 0 0 0 0 0 0 0 0 0 0 0 0 0 0 0 0 0 0 0 0 0 0
0 0 0 0 0 0 0 0 0 0 0 0 0 0 0 0 0 0 0 0 0 0 0 0 0 0 0 0 0 0 0 0 0 0 0 0 0 0
0 0 0 0 0 0 0 0 0 0 0 0 0 0 0 0 0 0 0 0 0 0 0 0 0 0 0 0 0 0 0 0 0 0 0 0 0 0
0 0 0 0 0 0 0 0 0 0 0 0 0 0 0 0 0 0 0 0 0 0 0 0 0 0 0 0 0 0 0 0 0 0 0 0 0 0
0 0 0 0 0 0 0 0 0 0 0 0 0 0 0 0 0 0 0 0 0 0 0 0 0 0 0 0 0 0 0 0 0 0 0 0 0 0
0 0 0 0 0 0 0 0 0 0 0 0 0 0 0 0 0 0 0 0 0 0 0 0 0 0 0 0 0 0 0 0 0 0 0 0 0 0
0 0 0 0 0 0 0 0 0 0 0 0 0 0 0 0 0 0 0 0 0 0 0 0 0 0 0 0 0 0 0 0 0 0 0 0 0 0
0 0 0 0 0 0 0 0 0 0 0 0 0 0 0 0 0 0 0 0 0 0 0 0 0 0 0 0 0 0 0 0 0 0 0 0 0 0
0 0 0 0 0 0 0 0 0 0 0 0 0 0 0 0 0 0 0 0 0 0 0 0 0 0 0 0 0 0 0 0 0 0 0 0 0 0
0 0 0 0 0 0 0 0 0 0 0 0 0 0 0 0 0 0 0 0 0 0 0 0 0 0 0 0 0 0 0 0 0 0 0 0 0 0
0 0 0 0 0 0 0 0 0 0 0 0 0 0 0 0 0 0 0 0 0 0 0 0 0 0 0 0 0 0 0 0 0 0 0 0 0 0
Wind_Speed
4 4 3 2 3 3 3 4 4 4 4 3 2 2 3 4 5 5 6 7 9 9 9 9 9 10 11 12 13 14 14 14 15 15 16 16 16 17
3 3 3 2 2 2 3 3 4 5 5 2 3 4 4 4 5 6 6 6 7 8 8 9 9 10 11 11 12 13 14 14 14 15 15 15 16 17
3 3 4 3 2 2 3 3 3 4 5 4 3 4 5 5 4 5 5 5 4 6 8 9 9 10 11 11 12 13 13 13 14 15 15 15 16 16
4 4 4 3 3 3 3 3 4 4 4 5 4 4 5 5 5 5 4 4 4 6 8 9 9 9 10 10 11 12 13 13 13 14 14 15 15 15
4 4 4 4 4 3 3 3 3 3 3 4 4 4 4 4 5 4 4 4 5 5 7 7 8 9 10 10 11 11 12 13 13 13 13 14 15 15
3 3 3 4 4 4 3 3 3 3 3 3 3 3 3 4 4 4 4 4 4 4 5 6 7 8 9 10 11 11 12 12 13 13 13 14 14 15
3 2 3 3 4 3 3 3 3 3 3 3 3 3 3 3 3 3 4 4 4 4 5 5 5 5 6 7 9 10 12 13 13 14 14 13 14 14
3 2 2 2 2 3 3 3 3 3 3 3 3 3 4 4 3 3 4 4 3 3 5 5 4 5 5 5 9 12 13 13 13 13 13 13 14 14
3 2 2 2 2 2 2 2 2 3 3 3 3 4 4 4 4 4 4 4 4 4 5 5 5 5 5 5 10 12 13 13 13 13 13 13 14 14
3 3 3 2 1 2 1 1 2 2 3 3 3 3 3 3 3 4 4 4 4 3 4 4 5 5 6 5 8 10 12 13 13 14 15 15 14 14
2 2 2 2 3 2 1 1 2 2 2 3 3 3 3 4 4 2 2 3 4 3 3 3 4 6 5 4 5 9 10 11 13 14 15 15 15 14
1 1 2 2 3 3 2 2 2 2 2 2 2 2 2 2 2 2 2 3 3 3 2 3 3 4 4 4 5 6 7 9 11 13 14 15 15 9
1 1 1 2 3 3 2 2 2 2 1 1 1 2 2 2 2 2 2 2 3 2 2 3 3 3 3 4 5 6 6 6 7 8 9 13 14 11
1 1 1 2 2 2 2 1 1 1 1 1 1 1 1 2 2 3 3 3 3 4 4 3 3 3 4 4 5 6 6 6 6 6 6 9 10 12
1 1 1 1 1 0 0 1 0 0 0 1 1 2 2 2 2 3 3 3 3 3 3 3 3 3 3 3 4 5 5 5 6 6 6 6 6 7
1 1 1 1 0 1 1 1 1 1 1 1 1 1 2 2 2 2 3 3 3 3 4 4 4 4 3 4 4 5 5 4 5 6 6 5 6 6
0 0 0 0 0 1 1 1 1 1 1 1 1 1 2 2 2 2 2 2 2 3 4 4 4 3 4 3 4 4 4 5 5 6 6 6 5 6
1 1 0 0 0 0 1 1 1 1 1 1 1 1 1 2 2 2 2 2 3 3 3 4 4 4 2 1 2 4 4 4 5 6 5 5 6 6
0 0 0 0 0 0 1 1 1 1 1 1 1 1 2 2 2 2 2 2 3 3 3 3 3 3 3 4 3 3 4 5 5 5 5 5 5 6
0 0 0 1 1 1 1 1 1 1 1 1 1 1 1 2 2 2 2 3 3 3 3 3 3 3 3 3 3 4 5 5 4 5 5 5 5 6
0 0 1 1 1 1 1 1 1 1 2 2 2 2 1 2 2 2 2 3 3 2 3 3 4 5 3 2 2 3 4 5 5 4 5 5 5 5
0 0 1 1 1 1 1 1 1 1 2 2 2 2 2 2 2 2 2 2 2 3 3 3 3 3 3 2 3 4 5 5 5 5 5 5 4 4
0 1 1 1 1 1 1 2 2 2 2 2 2 2 2 2 2 2 2 2 2 3 3 3 3 3 3 2 3 3 5 5 4 5 5 7 7 6
Wind_Direction
224 230 242 250 245 246 253 255 261 276 274 264 275 285 299 297 303 285 286 292 292 296 301 306 310 315 316 318 318 318 318 318 317 315 315 315 316 315
224 227 237 246 256 249 250 256 258 267 274 289 289 303 307 302 313 303 293 291 282 292 300 304 310 314 316 317 318 319 320 320 318 317 317 316 316 317
219 222 233 244 254 257 253 254 255 256 266 284 294 306 306 308 317 310 308 298 290 294 301 304 310 313 315 317 320 321 321 321 321 320 318 319 317 318
232 226 229 234 244 253 252 255 259 260 265 281 296 306 308 312 315 313 318 315 314 315 309 306 308 313 317 320 322 325 326 324 321 321 321 321 321 321
238 239 235 233 241 251 260 264 266 269 270 276 292 305 309 319 313 317 322 321 323 324 318 314 318 317 320 323 326 329 328 328 326 326 325 324 324 324
242 248 251 241 244 253 257 266 276 269 269 272 285 300 312 323 315 322 325 328 328 328 324 326 331 327 328 328 330 331 331 331 332 333 330 328 327 325
236 248 262 257 256 258 262 270 270 272 271 274 287 306 318 326 319 324 318 323 323 329 325 326 329 328 330 335 337 336 335 335 335 335 336 336 334 328
222 230 244 263 269 265 281 293 292 277 278 279 284 291 305 313 318 319 319 322 320 335 326 323 328 327 332 338 344 341 340 338 339 339 338 338 337 334
219 220 236 248 273 257 259 282 306 321 303 285 283 293 302 308 311 312 313 314 310 322 321 313 326 329 332 339 341 338 341 343 343 341 340 339 338 335
223 219 226 241 259 285 276 284 303 315 313 299 291 301 310 314 302 301 308 313 318 321 323 308 325 328 327 327 342 342 344 346 348 350 349 346 340 335
230 226 225 233 246 267 270 266 296 321 334 326 332 332 330 332 332 322 325 321 319 324 342 322 325 325 317 323 342 345 344 347 349 351 351 351 348 342
217 229 233 243 244 256 272 264 266 298 316 324 335 340 335 349 347 328 315 310 316 315 352 334 324 332 319 320 333 338 339 344 347 350 350 352 351 345
231 242 258 265 264 254 272 283 284 290 286 296 307 325 335 343 334 331 324 302 297 295 314 324 316 322 308 308 318 330 337 338 341 343 348 351 351 349
252 260 270 273 279 282 282 302 303 285 265 287 303 318 326 336 334 329 327 316 300 288 291 299 293 304 309 308 310 323 331 334 338 339 341 344 346 348
269 271 276 263 249 251 0 20 336 294 262 281 307 323 323 325 334 337 342 342 335 321 307 304 295 294 298 297 305 313 321 327 334 336 339 343 343 343
259 235 215 181 93 89 100 56 354 330 303 302 312 325 332 338 343 344 339 340 342 343 347 339 324 306 300 299 296 307 320 320 327 333 332 337 342 346
225 217 177 143 92 52 39 26 6 339 331 332 320 334 339 339 343 343 339 334 336 337 341 346 343 325 301 296 307 314 319 322 325 329 330 334 343 348
188 191 189 197 213 312 347 353 343 323 318 317 311 324 333 332 337 338 336 334 337 337 338 338 338 336 330 330 310 311 323 327 327 329 331 331 338 344
154 157 217 253 267 283 311 323 317 312 306 301 310 321 328 326 326 326 329 335 340 337 334 332 333 337 335 334 336 350 330 324 326 331 336 334 330 332
52 44 304 306 309 297 292 306 315 312 305 303 306 311 319 315 314 318 321 329 330 331 329 330 333 332 319 310 308 317 330 324 324 329 332 328 324 318
43 5 336 322 316 306 303 303 299 296 299 302 303 307 314 313 308 310 312 319 321 321 322 323 326 327 315 307 314 324 333 339 333 327 329 325 325 332
18 321 322 319 309 302 295 292 294 300 298 294 299 299 305 305 301 302 306 310 313 318 322 324 329 335 341 343 339 333 337 341 345 344 341 337 326 331
299 303 302 303 301 293 289 286 291 299 302 298 297 295 295 299 299 297 301 308 316 327 334 337 342 350 348 345 343 342 345 346 347 350 354 356 351 341